#timestamp,LO_Frequency,Hit,StdDev 
1657792815.5,286046999.9,N
1657792835.4,286047000.5,N
1657792855.2,286046998.3,N
1657792875.0,286046999.1,N
1657792875.9,286046999.1,N
1657792895.8,286046996.8,N
1657792915.6,286046997.2,N
1657792935.4,286046996.6,N
1657792955.3,286046997.7,N
1657792975.1,286046997.1,N
1657792995.9,286046997.2,N
1657793015.7,286046996.7,N
1657793035.5,286046996.6,N
1657793055.4,286046996.7,N
1657793075.2,286046999.5,N
1657793095.0,286046998.4,N
1657793095.9,286046998.4,N
1657793115.8,286047001.0,N
1657793135.6,286047000.9,N
1657793155.5,286046998.1,N
1657793175.3,286046998.5,N
1657793195.1,286046998.4,N
1657793215.9,286046998.1,N
1657793235.7,286046998.7,N
1657793255.5,286047000.7,N
1657793275.4,286046998.4,N
1657793295.2,286047000.6,N
1657793315.0,286047000.5,N
1657793316.0,286047000.5,N
1657793335.8,286047001.0,N
1657793355.6,286047001.1,N
1657793375.5,286047001.0,N
1657793395.3,286047001.2,N
1657793415.2,286047000.9,N
1657793435.9,286047000.9,N
1657793455.7,286047000.9,N
1657793475.6,286047001.0,N
1657793495.4,286046998.5,N
1657793515.2,286046996.9,N
1657793535.1,286046996.8,N
1657793536.0,286046996.8,N
1657793555.8,286046997.0,N
1657793575.7,286046999.0,N
1657793595.5,286046999.5,N
1657793615.3,286046997.2,N
1657793635.2,286046998.3,N
1657793655.9,286046996.5,N
1657793675.7,286046996.9,N
1657793695.6,286046997.3,N
1657793715.4,286046997.0,N
1657793735.3,286046997.7,N
1657793755.1,286046996.9,N
1657793756.0,286046996.9,N
1657793775.8,286046997.0,N
1657793795.7,286046997.2,N
1657793815.5,286046997.2,N
1657793835.3,286046996.9,N
1657793855.2,286046997.0,N
1657793875.0,286046999.5,N
1657793875.9,286046999.5,N
1657793895.8,286046999.1,N
1657793915.6,286046998.4,N
1657793935.4,286047001.1,N
1657793955.3,286046998.4,N
1657793975.1,286046996.9,N
1657793995.8,286046998.6,N
1657794015.7,286046999.0,N
1657794035.5,286046998.9,N
1657794055.4,286047000.7,N
1657794075.2,286047001.1,N
1657794095.0,286047001.2,N
1657794095.9,286047001.2,N
1657794115.8,286046998.2,N
1657794135.6,286047001.0,N
1657794155.4,286046998.1,N
1657794175.3,286046998.1,N
1657794195.1,286046998.1,N
1657794215.9,286047000.7,N
1657794235.7,286047000.6,N
1657794255.5,286047000.8,N
1657794275.4,286046998.7,N
1657794295.2,286046998.5,N
1657794315.0,286046998.8,N
1657794316.0,286046998.8,N
1657794335.8,286046999.4,N
1657794355.6,286046998.6,N
1657794375.5,286047001.2,N
1657794395.3,286046996.5,N
1657794415.1,286046999.0,N
1657794435.9,286046999.0,N
1657794455.7,286046998.7,N
1657794475.6,286046998.8,N
1657794495.4,286046998.9,N
1657794515.2,286047001.2,N
1657794535.1,286047001.1,N
1657794536.0,286047001.1,N
1657794555.8,286046998.6,N
1657794575.6,286047001.1,N
1657794595.5,286046998.8,N
1657794615.3,286047001.1,N
1657794635.2,286046996.9,N
1657794655.9,286046997.3,N
1657794675.7,286046996.6,N
1657794695.6,286046996.9,N
1657794715.4,286046996.9,N
1657794735.2,286046996.9,N
1657794755.1,286046997.1,N
1657794756.0,286046997.1,N
1657794775.8,286046996.6,N
1657794795.7,286046996.8,N
1657794815.5,286046999.1,N
1657794835.3,286046996.5,N
1657794855.2,286046999.6,N
1657794875.0,286046996.9,N
1657794875.9,286046996.9,N
1657794895.7,286046996.9,N
1657794915.6,286046999.1,N
1657794935.4,286047006.8,Y
1657794955.3,286047011.6,P
1657794975.1,286047013.9,N
1657794976.0,286047013.9,N
1657794995.8,286047013.3,N
1657795015.7,286047013.7,N
1657795035.5,286047011.6,N
1657795055.4,286047012.0,N
1657795075.2,286047007.8,N
1657795095.0,286047007.4,N
1657795095.9,286047007.4,N
1657795115.8,286047006.1,N
1657795135.6,286047007.0,N
1657795155.4,286047007.4,N
1657795175.3,286047005.4,N
1657795195.1,286047005.3,N
1657795215.9,286047005.5,N
1657795235.7,286047005.1,N
1657795255.5,286047004.8,N
1657795275.4,286047005.6,N
1657795295.2,286047006.0,N
1657795315.0,286047003.2,N
1657795315.9,286047003.2,N
1657795335.8,286047004.2,N
1657795355.6,286047003.6,N
1657795375.5,286047004.0,N
1657795395.3,286047003.8,N
1657795415.1,286047003.9,N
1657795435.9,286047004.3,N
1657795455.7,286047003.7,N
1657795475.5,286047003.7,N
1657795495.4,286047001.3,N
1657795515.2,286047004.1,N
1657795535.1,286047003.0,N
1657795536.0,286047003.0,N
1657795555.8,286047003.1,N
1657795575.6,286047003.2,N
1657795595.5,286047003.4,N
1657795615.3,286047003.1,N
1657795635.1,286047003.7,N
1657795655.9,286047003.1,N
1657795675.7,286047003.9,N
1657795695.6,286047002.6,N
1657795715.4,286047002.5,N
1657795735.2,286047002.6,N
1657795755.1,286047001.4,N
1657795756.0,286047001.4,N
1657795775.8,286047001.6,N
1657795795.7,286047002.2,N
1657795815.5,286046999.7,N
1657795835.3,286047002.1,N
1657795855.2,286046999.9,N
1657795875.9,286046999.7,N
1657795895.7,286047000.1,N
1657795915.6,286047002.0,N
1657795935.4,286046999.7,N
1657795955.3,286047002.7,N
1657795975.1,286046999.7,N
1657795976.0,286046999.7,N
1657795995.8,286047000.3,N
1657796015.7,286047000.9,N
1657796035.5,286047000.8,N
1657796055.3,286047000.6,N
1657796075.2,286047001.1,N
1657796095.0,286047002.7,N
1657796095.9,286047002.7,N
1657796115.8,286046998.5,N
1657796135.6,286047000.1,N
1657796155.4,286047002.8,N
1657796175.3,286047002.4,N
1657796195.1,286047002.8,N
1657796215.8,286046999.7,N
1657796235.7,286047001.2,N
1657796255.5,286046998.1,N
1657796275.4,286046998.1,N
1657796295.2,286046999.9,N
1657796315.0,286047000.8,N
1657796315.9,286047000.8,N
1657796335.8,286047000.8,N
1657796355.6,286046998.6,N
1657796375.4,286047000.5,N
1657796395.3,286047002.8,N
